Вернуться в каталог

DELTA 1 DEB

АктивенPO
NORAD 25997·DEBRIS·🇺🇸 United States

Запущен Jun 12, 1975 с Vandenberg Space Force Base

Loading…

Ближайшие Пролёты (ближайшие 24 часа)

TLE

СвежийSource: Space-Track

Эпоха: Sep 14, 2026, 22:57 UTC

1 25997U 75052BA  26257.95639103  .00003481  00000-0  10005-2 0  9993
2 25997  99.9984 257.8680 0117533 117.5457 243.7727 14.41673414684339

Отслеживайте DELTA 1 DEB в реальном времени с AllMySat

Download on the App Store